Location: Rio Negrinho
(26.2394°S, 49.4999°W)
Time: 19:44:06
(UTC+00:00)

Envisat - Pass Details

Date: 29 July 2021
Orbit: 764 x 766 km, 98.2° (Epoch: 17 September)

Event Time Altitude Azimuth Distance (km) Brightness Sun altitude
Rises 06:56:18 0° 47° (NE) 3,220 6.8 -40.8°
Reaches altitude 10° 06:59:09 10° 64° (ENE) 2,302 6.1 -40.2°
Enters shadow 07:02:24 20° 104° (ESE) 1,723 5.3 -39.4°
